Year,Month,Day,Hour,Minute,Value (Times are PST for temperature in C)
2008,03,31,00,00,0.30
2008,03,31,00,01,0.30
2008,03,31,00,02,0.30
2008,03,31,00,03,0.30
2008,03,31,00,04,0.30
2008,03,31,00,05,0.30
2008,03,31,00,06,0.30
2008,03,31,00,07,0.30
2008,03,31,00,08,0.20
2008,03,31,00,09,0.30
2008,03,31,00,10,0.30
2008,03,31,00,11,0.30
2008,03,31,00,12,0.30
2008,03,31,00,13,0.30
2008,03,31,00,14,0.40
2008,03,31,00,15,0.40
2008,03,31,00,16,0.40
2008,03,31,00,17,0.40
2008,03,31,00,18,0.40
2008,03,31,00,19,0.40
2008,03,31,00,20,0.40
2008,03,31,00,21,0.40
2008,03,31,00,22,0.30
2008,03,31,00,23,0.30
2008,03,31,00,24,0.30
2008,03,31,00,25,0.30
2008,03,31,00,26,0.30
2008,03,31,00,27,0.30
2008,03,31,00,28,0.30
2008,03,31,00,29,0.20
2008,03,31,00,30,0.20
2008,03,31,00,31,0.20
2008,03,31,00,32,0.20
2008,03,31,00,33,0.20
2008,03,31,00,34,0.20
2008,03,31,00,35,0.20
2008,03,31,00,36,0.20
2008,03,31,00,37,0.20
2008,03,31,00,38,0.20
2008,03,31,00,39,0.20
2008,03,31,00,40,0.20
2008,03,31,00,41,0.20
2008,03,31,00,42,0.20
2008,03,31,00,43,0.20
2008,03,31,00,44,0.10
2008,03,31,00,45,0.10
2008,03,31,00,46,0.10
2008,03,31,00,47,0.10
2008,03,31,00,48,0.10
2008,03,31,00,49,0.10
2008,03,31,00,50,0.10
2008,03,31,00,51,0.00
2008,03,31,00,52,0.00
2008,03,31,00,53,-0.10
2008,03,31,00,54,-0.10
2008,03,31,00,55,-0.10
2008,03,31,00,56,-0.10
2008,03,31,00,57,-0.10
2008,03,31,00,58,-0.20
2008,03,31,00,59,-0.20
2008,03,31,01,00,-0.20
2008,03,31,01,01,-0.20
2008,03,31,01,02,-0.20
2008,03,31,01,03,-0.20
2008,03,31,01,04,-0.20
2008,03,31,01,05,-0.20
2008,03,31,01,06,-0.20
2008,03,31,01,07,-0.20
2008,03,31,01,08,-0.20
2008,03,31,01,09,-0.20
2008,03,31,01,10,-0.20
2008,03,31,01,11,-0.20
2008,03,31,01,12,-0.20
2008,03,31,10,21,5.40
2008,03,31,10,22,5.30
2008,03,31,10,23,5.30
2008,03,31,10,24,5.30
2008,03,31,10,25,5.30
2008,03,31,10,26,5.30
2008,03,31,10,27,5.30
2008,03,31,10,28,5.20
2008,03,31,10,29,5.20
2008,03,31,10,30,5.20
2008,03,31,10,31,5.20
2008,03,31,10,32,5.20
2008,03,31,10,33,5.20
2008,03,31,10,34,5.20
2008,03,31,10,35,5.20
2008,03,31,10,36,5.20
2008,03,31,10,37,5.20
2008,03,31,10,38,5.20
2008,03,31,10,39,5.30
2008,03,31,10,40,5.30
2008,03,31,10,41,5.30
2008,03,31,10,42,5.30
2008,03,31,10,43,5.30
2008,03,31,10,44,5.30
2008,03,31,10,45,5.40
2008,03,31,10,46,5.50
2008,03,31,10,47,5.50
2008,03,31,10,48,5.50
2008,03,31,10,49,5.50
2008,03,31,10,50,5.50
2008,03,31,10,51,5.50
2008,03,31,10,52,5.60
2008,03,31,10,53,5.70
2008,03,31,10,54,5.70
2008,03,31,10,55,5.80
2008,03,31,10,56,5.80
2008,03,31,10,57,5.80
2008,03,31,10,58,5.80
2008,03,31,10,59,5.70
2008,03,31,11,00,5.70
2008,03,31,11,01,5.70
2008,03,31,11,02,5.70
2008,03,31,11,03,5.80
2008,03,31,11,04,5.80
2008,03,31,11,05,5.80
2008,03,31,11,06,5.80
2008,03,31,11,07,5.90
2008,03,31,11,08,5.80
2008,03,31,11,09,5.80
2008,03,31,11,10,5.80
2008,03,31,11,11,5.90
2008,03,31,11,12,5.90
2008,03,31,11,13,5.90
2008,03,31,11,14,6.00
2008,03,31,11,15,6.00
2008,03,31,11,16,6.10
2008,03,31,11,17,6.20
2008,03,31,11,18,6.30
2008,03,31,11,19,6.30
2008,03,31,11,20,6.30
2008,03,31,11,21,6.30
2008,03,31,11,22,6.30
2008,03,31,11,23,6.30
2008,03,31,11,24,6.40
2008,03,31,11,25,6.30
2008,03,31,11,26,6.30
2008,03,31,11,27,6.30
2008,03,31,11,28,6.30
2008,03,31,11,29,6.30
2008,03,31,11,30,6.40
2008,03,31,11,31,6.30
2008,03,31,11,32,6.30
2008,03,31,11,33,6.20
2008,03,31,11,34,6.10
2008,03,31,11,35,6.00
2008,03,31,11,36,6.00
2008,03,31,11,37,5.90
2008,03,31,11,38,5.90
2008,03,31,11,39,5.90
2008,03,31,11,40,5.90
2008,03,31,11,41,5.90
2008,03,31,11,42,5.80
2008,03,31,11,43,5.80
2008,03,31,11,44,5.70
2008,03,31,11,45,5.70
2008,03,31,11,46,5.70
2008,03,31,11,47,5.60
2008,03,31,11,48,5.60
2008,03,31,11,49,5.50
2008,03,31,11,50,5.50
2008,03,31,11,51,5.50
2008,03,31,11,52,5.60
2008,03,31,11,53,5.60
2008,03,31,11,54,5.70
2008,03,31,11,55,5.80
2008,03,31,11,56,5.80
2008,03,31,11,57,5.80
2008,03,31,11,58,5.90
2008,03,31,11,59,5.90
2008,03,31,12,00,5.90
2008,03,31,12,01,5.90
2008,03,31,12,02,5.90
2008,03,31,12,03,5.80
2008,03,31,12,04,5.80
2008,03,31,12,05,5.90
2008,03,31,12,06,6.00
2008,03,31,12,07,6.10
2008,03,31,12,08,6.20
2008,03,31,12,09,6.20
2008,03,31,12,10,6.20
2008,03,31,12,11,6.20
2008,03,31,12,12,6.20
2008,03,31,12,13,6.20
2008,03,31,12,14,6.10
2008,03,31,12,15,6.10
2008,03,31,12,16,6.10
2008,03,31,12,17,6.10
2008,03,31,12,18,6.20
2008,03,31,12,19,6.30
2008,03,31,12,20,6.40
2008,03,31,12,21,6.40
2008,03,31,12,22,6.30
2008,03,31,12,23,6.20
2008,03,31,12,24,6.10
2008,03,31,12,25,6.10
2008,03,31,12,26,6.00
2008,03,31,12,27,5.90
2008,03,31,12,28,5.80
2008,03,31,12,29,5.80
2008,03,31,12,30,5.80
2008,03,31,12,31,5.80
2008,03,31,12,32,5.90
2008,03,31,12,33,5.90
2008,03,31,12,34,6.00
2008,03,31,12,35,6.10
2008,03,31,12,36,6.20
2008,03,31,12,37,6.30
2008,03,31,12,38,6.30
2008,03,31,12,39,6.30
2008,03,31,12,40,6.40
2008,03,31,12,41,6.50
2008,03,31,12,42,6.60
2008,03,31,12,43,6.70
2008,03,31,12,44,6.70
2008,03,31,12,45,6.70
2008,03,31,12,46,6.70
2008,03,31,12,47,6.70
2008,03,31,12,48,6.70
2008,03,31,12,49,6.60
2008,03,31,12,50,6.50
2008,03,31,12,51,6.50
2008,03,31,12,52,6.40
2008,03,31,12,53,6.50
2008,03,31,12,54,6.40
2008,03,31,12,55,6.50
2008,03,31,12,56,6.60
2008,03,31,12,57,6.70
2008,03,31,12,58,6.60
2008,03,31,12,59,6.60
2008,03,31,13,00,6.50
2008,03,31,13,01,6.40
2008,03,31,13,02,6.40
2008,03,31,13,03,6.50
2008,03,31,13,04,6.50
2008,03,31,13,05,6.60
2008,03,31,13,06,6.60
2008,03,31,13,07,6.60
2008,03,31,13,08,6.60
2008,03,31,13,09,6.60
2008,03,31,13,10,6.60
2008,03,31,13,11,6.50
2008,03,31,13,12,6.40
2008,03,31,13,13,6.30
2008,03,31,13,14,6.30
2008,03,31,13,15,6.30
2008,03,31,13,16,6.30
2008,03,31,13,17,6.30
2008,03,31,13,18,6.30
2008,03,31,13,19,6.30
2008,03,31,13,20,6.30
2008,03,31,13,21,6.40
2008,03,31,13,22,6.40
2008,03,31,13,23,6.40
2008,03,31,13,24,6.40
2008,03,31,13,25,6.40
2008,03,31,13,26,6.30
2008,03,31,13,27,6.30
2008,03,31,13,28,6.30
2008,03,31,13,29,6.30
2008,03,31,13,30,6.40
2008,03,31,13,31,6.50
2008,03,31,13,32,6.70
2008,03,31,13,33,6.70
2008,03,31,13,34,6.70
2008,03,31,13,35,6.70
2008,03,31,13,36,6.60
2008,03,31,13,37,6.60
2008,03,31,13,38,6.50
2008,03,31,13,39,6.40
2008,03,31,13,40,6.40
2008,03,31,13,41,6.40
2008,03,31,13,42,6.50
2008,03,31,13,43,6.50
2008,03,31,13,44,6.50
2008,03,31,13,45,6.50
2008,03,31,13,46,6.60
2008,03,31,13,47,6.70
2008,03,31,13,48,6.80
2008,03,31,13,49,6.80
2008,03,31,13,50,6.70
2008,03,31,13,51,6.70
2008,03,31,13,52,6.80
2008,03,31,13,53,6.80
2008,03,31,13,54,6.90
2008,03,31,13,55,6.90
2008,03,31,13,56,6.90
2008,03,31,13,57,7.00
2008,03,31,13,58,7.00
2008,03,31,13,59,7.10
2008,03,31,14,00,7.10
2008,03,31,14,01,7.10
2008,03,31,14,02,7.10
2008,03,31,14,03,7.10
2008,03,31,14,04,7.20
2008,03,31,14,05,7.20
2008,03,31,14,06,7.10
2008,03,31,14,07,7.10
2008,03,31,14,08,7.10
2008,03,31,14,09,7.10
2008,03,31,14,10,7.20
2008,03,31,14,11,7.20
2008,03,31,14,12,7.20
2008,03,31,14,13,7.20
2008,03,31,14,14,7.30
2008,03,31,14,15,7.40
2008,03,31,14,16,7.50
2008,03,31,14,17,7.50
2008,03,31,14,18,7.40
2008,03,31,14,19,7.40
2008,03,31,14,20,7.30
2008,03,31,14,21,7.40
2008,03,31,14,22,7.50
2008,03,31,14,23,7.60
2008,03,31,14,24,7.60
2008,03,31,14,25,7.60
2008,03,31,14,26,7.50
2008,03,31,14,27,7.40
2008,03,31,14,28,7.40
2008,03,31,14,29,7.30
2008,03,31,14,30,7.20
2008,03,31,14,31,7.10
2008,03,31,14,32,7.10
2008,03,31,14,33,7.20
2008,03,31,14,34,7.30
2008,03,31,14,35,7.40
2008,03,31,14,36,7.40
2008,03,31,14,37,7.50
2008,03,31,14,38,7.70
2008,03,31,14,39,7.70
2008,03,31,14,40,7.70
2008,03,31,14,41,7.70
2008,03,31,14,42,7.70
2008,03,31,14,43,7.70
2008,03,31,14,44,7.70
2008,03,31,14,45,7.70
2008,03,31,14,46,7.60
2008,03,31,14,47,7.50
2008,03,31,14,48,7.40
2008,03,31,14,49,7.40
2008,03,31,14,50,7.40
2008,03,31,14,51,7.40
2008,03,31,14,52,7.40
2008,03,31,14,53,7.50
2008,03,31,14,54,7.50
2008,03,31,14,55,7.50
2008,03,31,14,56,7.50
2008,03,31,14,57,7.40
2008,03,31,14,58,7.40
2008,03,31,14,59,7.40
2008,03,31,15,00,7.40
2008,03,31,15,01,7.30
2008,03,31,15,02,7.30
2008,03,31,15,03,7.30
2008,03,31,15,04,7.30
2008,03,31,15,05,7.30
2008,03,31,15,06,7.40
2008,03,31,15,07,7.40
2008,03,31,15,08,7.40
2008,03,31,15,09,7.50
2008,03,31,15,10,7.60
2008,03,31,15,11,7.70
2008,03,31,15,12,7.90
2008,03,31,15,13,7.90
2008,03,31,15,14,7.90
2008,03,31,15,15,7.90
2008,03,31,15,16,7.90
2008,03,31,15,17,7.90
2008,03,31,15,18,7.90
2008,03,31,15,19,7.90
2008,03,31,15,20,7.80
2008,03,31,15,21,7.80
2008,03,31,15,22,7.80
2008,03,31,15,23,7.70
2008,03,31,15,24,7.70
2008,03,31,15,25,7.80
2008,03,31,15,26,7.80
2008,03,31,15,27,7.90
2008,03,31,15,28,7.90
2008,03,31,15,29,7.90
2008,03,31,15,30,7.80
2008,03,31,15,31,7.60
2008,03,31,15,32,7.50
2008,03,31,15,33,7.20
2008,03,31,15,34,7.10
2008,03,31,15,35,7.00
2008,03,31,15,36,6.80
2008,03,31,15,37,6.80
2008,03,31,15,38,6.80
2008,03,31,15,39,6.70
2008,03,31,15,40,6.70
2008,03,31,15,41,6.70
2008,03,31,15,42,6.70
2008,03,31,15,43,6.70
2008,03,31,15,44,6.80
2008,03,31,15,45,6.90
2008,03,31,15,46,7.00
2008,03,31,15,47,7.10
2008,03,31,15,48,7.20
2008,03,31,15,49,7.20
2008,03,31,15,50,7.30
2008,03,31,15,51,7.30
2008,03,31,15,52,7.20
2008,03,31,15,53,7.20
2008,03,31,15,54,7.20
2008,03,31,15,55,7.20
2008,03,31,15,56,7.10
2008,03,31,15,57,7.10
2008,03,31,15,58,7.10
2008,03,31,15,59,7.10
2008,03,31,16,00,7.20
2008,03,31,16,01,7.20
2008,03,31,16,02,7.20
2008,03,31,16,03,7.10
2008,03,31,16,04,7.00
2008,03,31,16,05,7.00
2008,03,31,16,06,7.00
2008,03,31,16,07,7.00
2008,03,31,16,08,7.10
2008,03,31,16,09,7.10
2008,03,31,16,10,7.20
2008,03,31,16,11,7.20
2008,03,31,16,12,7.20
2008,03,31,16,13,7.20
2008,03,31,16,14,7.30
2008,03,31,16,15,7.40
2008,03,31,16,16,7.50
2008,03,31,16,17,7.60
2008,03,31,16,18,7.70
2008,03,31,16,19,7.90
2008,03,31,16,20,7.90
2008,03,31,16,21,8.00
2008,03,31,16,22,8.00
2008,03,31,16,23,8.00
2008,03,31,16,24,8.00
2008,03,31,16,25,7.90
2008,03,31,16,26,8.00
2008,03,31,16,27,8.00
2008,03,31,16,28,8.00
2008,03,31,16,29,8.00
2008,03,31,16,30,8.00
2008,03,31,16,31,8.00
2008,03,31,16,32,7.90
2008,03,31,16,33,7.80
2008,03,31,16,34,7.80
2008,03,31,16,35,7.80
2008,03,31,16,36,7.70
2008,03,31,16,37,7.70
2008,03,31,16,38,7.70
2008,03,31,16,39,7.70
2008,03,31,16,40,7.70
2008,03,31,16,41,7.70
2008,03,31,16,42,7.60
2008,03,31,16,43,7.60
2008,03,31,16,44,7.70
2008,03,31,16,45,7.70
2008,03,31,16,46,7.70
2008,03,31,16,47,7.70
2008,03,31,16,48,7.80
2008,03,31,16,49,7.80
2008,03,31,16,50,7.80
2008,03,31,16,51,7.80
2008,03,31,16,52,7.80
2008,03,31,16,53,7.80
2008,03,31,16,54,7.80
2008,03,31,16,55,7.80
2008,03,31,16,56,7.90
2008,03,31,16,57,7.90
2008,03,31,16,58,8.00
2008,03,31,16,59,8.10
2008,03,31,17,00,8.20
2008,03,31,17,01,8.20
2008,03,31,17,02,8.20
2008,03,31,17,03,8.30
2008,03,31,17,04,8.30
2008,03,31,17,05,8.30
2008,03,31,17,06,8.40
2008,03,31,17,07,8.40
2008,03,31,17,08,8.50
2008,03,31,17,09,8.50
2008,03,31,17,10,8.50
2008,03,31,17,11,8.40
2008,03,31,17,12,8.30
2008,03,31,17,13,8.30
2008,03,31,17,14,8.30
2008,03,31,17,15,8.20
2008,03,31,17,16,8.20
2008,03,31,17,17,8.20
2008,03,31,17,18,8.20
2008,03,31,17,19,8.30
2008,03,31,17,20,8.30
2008,03,31,17,21,8.30
2008,03,31,17,22,8.40
2008,03,31,17,23,8.40
2008,03,31,17,24,8.40
2008,03,31,17,25,8.40
2008,03,31,17,26,8.30
2008,03,31,17,27,8.40
2008,03,31,17,28,8.40
2008,03,31,17,29,8.40
2008,03,31,17,30,8.50
2008,03,31,17,31,8.50
2008,03,31,17,32,8.40
2008,03,31,17,33,8.40
2008,03,31,17,34,8.30
2008,03,31,17,35,8.30
2008,03,31,17,36,8.20
2008,03,31,17,37,8.30
2008,03,31,17,38,8.30
2008,03,31,17,39,8.30
2008,03,31,17,40,8.30
2008,03,31,17,41,8.30
2008,03,31,17,42,8.40
2008,03,31,17,43,8.40
2008,03,31,17,44,8.40
2008,03,31,17,45,8.50
2008,03,31,17,46,8.50
2008,03,31,17,47,8.50
2008,03,31,17,48,8.40
2008,03,31,17,49,8.40
2008,03,31,17,50,8.30
2008,03,31,17,51,8.20
2008,03,31,17,52,8.00
2008,03,31,17,53,7.90
2008,03,31,17,54,7.90
2008,03,31,17,55,7.90
2008,03,31,17,56,7.90
2008,03,31,17,57,7.90
2008,03,31,17,58,8.00
2008,03,31,17,59,8.10
2008,03,31,18,00,8.20
2008,03,31,18,01,8.30
2008,03,31,18,02,8.30
2008,03,31,18,03,8.30
2008,03,31,18,04,8.20
2008,03,31,18,05,8.20
2008,03,31,18,06,8.20
2008,03,31,18,07,8.10
2008,03,31,18,08,8.10
2008,03,31,18,09,8.00
2008,03,31,18,10,7.90
2008,03,31,18,11,7.80
2008,03,31,18,12,7.80
2008,03,31,18,13,7.80
2008,03,31,18,14,7.90
2008,03,31,18,15,7.80
2008,03,31,18,16,7.90
2008,03,31,18,17,7.90
2008,03,31,18,18,8.00
2008,03,31,18,19,8.00
2008,03,31,18,20,8.10
2008,03,31,18,21,8.10
2008,03,31,18,22,8.10
2008,03,31,18,23,8.10
2008,03,31,18,24,8.10
2008,03,31,18,25,8.10
2008,03,31,18,26,8.10
2008,03,31,18,27,8.10
2008,03,31,18,28,8.00
2008,03,31,18,29,8.00
2008,03,31,18,30,7.90
2008,03,31,18,31,7.90
2008,03,31,18,32,7.90
2008,03,31,18,33,7.90
2008,03,31,18,34,7.80
2008,03,31,18,35,7.80
2008,03,31,18,36,7.80
2008,03,31,18,37,7.80
2008,03,31,18,38,7.80
2008,03,31,18,39,7.70
2008,03,31,18,40,7.60
2008,03,31,18,41,7.50
2008,03,31,18,42,7.40
2008,03,31,18,43,7.20
2008,03,31,18,44,7.20
2008,03,31,18,45,7.10
2008,03,31,18,46,7.00
2008,03,31,18,47,7.00
2008,03,31,18,48,6.90
2008,03,31,18,49,6.90
2008,03,31,18,50,6.80
2008,03,31,18,51,6.80
2008,03,31,18,52,6.80
2008,03,31,18,53,6.70
2008,03,31,18,54,6.70
2008,03,31,18,55,6.70
2008,03,31,18,56,6.60
2008,03,31,18,57,6.50
2008,03,31,18,58,6.40
2008,03,31,18,59,6.40
2008,03,31,19,00,6.30
2008,03,31,19,01,6.20
2008,03,31,19,02,6.10
2008,03,31,19,03,6.00
2008,03,31,19,04,5.90
2008,03,31,19,05,5.80
2008,03,31,19,06,5.70
2008,03,31,19,07,5.60
2008,03,31,19,08,5.50
2008,03,31,19,09,5.40
2008,03,31,19,10,5.30
2008,03,31,19,11,5.20
2008,03,31,19,12,5.20
2008,03,31,19,13,5.10
2008,03,31,19,14,5.00
2008,03,31,19,15,4.90
2008,03,31,19,16,4.90
2008,03,31,19,17,4.80
2008,03,31,19,18,4.70
2008,03,31,19,19,4.60
2008,03,31,19,20,4.60
2008,03,31,19,21,4.50
2008,03,31,19,22,4.50
2008,03,31,19,23,4.40
2008,03,31,19,24,4.30
2008,03,31,19,25,4.30
2008,03,31,19,26,4.20
2008,03,31,19,27,4.20
2008,03,31,19,28,4.10
2008,03,31,19,29,4.10
2008,03,31,19,30,4.10
2008,03,31,19,31,4.00
2008,03,31,19,32,4.00
2008,03,31,19,33,3.90
2008,03,31,19,34,3.90
2008,03,31,19,35,3.80
2008,03,31,19,36,3.80
2008,03,31,19,37,3.80
2008,03,31,19,38,3.80
2008,03,31,19,39,3.80
2008,03,31,19,40,3.80
2008,03,31,19,41,3.70
2008,03,31,19,42,3.70
2008,03,31,19,43,3.60
2008,03,31,19,44,3.60
2008,03,31,19,45,3.60
2008,03,31,19,46,3.50
2008,03,31,19,47,3.50
2008,03,31,19,48,3.50
2008,03,31,19,49,3.50
2008,03,31,19,50,3.50
2008,03,31,19,51,3.60
2008,03,31,19,52,3.70
2008,03,31,19,53,3.80
2008,03,31,19,54,3.80
2008,03,31,19,55,3.80
2008,03,31,19,56,3.80
2008,03,31,19,57,3.80
2008,03,31,19,58,3.80
2008,03,31,19,59,3.70
2008,03,31,20,00,3.70
2008,03,31,20,01,3.70
2008,03,31,20,02,3.60
2008,03,31,20,03,3.60
2008,03,31,20,04,3.50
2008,03,31,20,05,3.50
2008,03,31,20,06,3.40
2008,03,31,20,07,3.40
2008,03,31,20,08,3.30
2008,03,31,20,09,3.20
2008,03,31,20,10,3.20
2008,03,31,20,11,3.10
2008,03,31,20,12,3.10
2008,03,31,20,13,3.00
2008,03,31,20,14,3.00
2008,03,31,20,15,3.00
2008,03,31,20,16,2.90
2008,03,31,20,17,2.90
2008,03,31,20,18,2.90
2008,03,31,20,19,2.90
2008,03,31,20,20,2.90
2008,03,31,20,21,2.90
2008,03,31,20,22,2.90
2008,03,31,20,23,2.90
2008,03,31,20,24,2.90
2008,03,31,20,25,2.80
2008,03,31,20,26,2.80
2008,03,31,20,27,2.70
2008,03,31,20,28,2.60
2008,03,31,20,29,2.60
2008,03,31,20,30,2.50
2008,03,31,20,31,2.50
2008,03,31,20,32,2.50
2008,03,31,20,33,2.50
2008,03,31,20,34,2.50
2008,03,31,20,35,2.50
2008,03,31,20,36,2.50
2008,03,31,20,37,2.50
2008,03,31,20,38,2.60
2008,03,31,20,39,2.60
2008,03,31,20,40,2.60
2008,03,31,20,41,2.50
2008,03,31,20,42,2.50
2008,03,31,20,43,2.40
2008,03,31,20,44,2.40
2008,03,31,20,45,2.40
2008,03,31,20,46,2.30
2008,03,31,20,47,2.30
2008,03,31,20,48,2.30
2008,03,31,20,49,2.30
2008,03,31,20,50,2.20
2008,03,31,20,51,2.20
2008,03,31,20,52,2.20
2008,03,31,20,53,2.30
2008,03,31,20,54,2.20
2008,03,31,20,55,2.20
2008,03,31,20,56,2.20
2008,03,31,20,57,2.20
2008,03,31,20,58,2.20
2008,03,31,20,59,2.20
2008,03,31,21,00,2.20
2008,03,31,21,01,2.20
2008,03,31,21,02,2.20
2008,03,31,21,03,2.10
2008,03,31,21,04,2.10
2008,03,31,21,05,2.00
2008,03,31,21,06,2.00
2008,03,31,21,07,1.90
2008,03,31,21,08,1.80
2008,03,31,21,09,1.80
2008,03,31,21,10,1.70
2008,03,31,21,11,1.70
2008,03,31,21,12,1.70
2008,03,31,21,13,1.70
2008,03,31,21,14,1.70
2008,03,31,21,15,1.60
2008,03,31,21,16,1.60
2008,03,31,21,17,1.60
2008,03,31,21,18,1.60
2008,03,31,21,19,1.60
2008,03,31,21,20,1.60
2008,03,31,21,21,1.70
2008,03,31,21,22,1.70
2008,03,31,21,23,1.60
2008,03,31,21,24,1.60
2008,03,31,21,25,1.60
2008,03,31,21,26,1.60
2008,03,31,21,27,1.50
2008,03,31,21,28,1.50
2008,03,31,21,29,1.40
2008,03,31,21,30,1.30
2008,03,31,21,31,1.30
2008,03,31,21,32,1.30
2008,03,31,21,33,1.30
2008,03,31,21,34,1.30
2008,03,31,21,35,1.30
2008,03,31,21,36,1.20
2008,03,31,21,37,1.20
2008,03,31,21,38,1.20
2008,03,31,21,39,1.10
2008,03,31,21,40,1.20
2008,03,31,21,41,1.10
2008,03,31,21,42,1.10
2008,03,31,21,43,1.10
2008,03,31,21,44,1.10
2008,03,31,21,45,1.00
2008,03,31,21,46,1.00
2008,03,31,21,47,1.00
2008,03,31,21,48,0.90
2008,03,31,21,49,0.90
2008,03,31,21,50,0.90
2008,03,31,21,51,0.90
2008,03,31,21,52,0.80
2008,03,31,21,53,0.80
2008,03,31,21,54,0.80
2008,03,31,21,55,0.80
2008,03,31,21,56,0.80
2008,03,31,21,57,0.80
2008,03,31,21,58,0.80
2008,03,31,21,59,0.80
2008,03,31,22,00,0.80
2008,03,31,22,01,0.80
2008,03,31,22,02,0.80
2008,03,31,22,03,0.80
2008,03,31,22,04,0.80
2008,03,31,22,05,0.80
2008,03,31,22,06,0.80
2008,03,31,22,07,0.80
2008,03,31,22,08,0.80
2008,03,31,22,09,0.80
2008,03,31,22,10,0.80
2008,03,31,22,11,0.80
2008,03,31,22,12,0.70
2008,03,31,22,13,0.70
2008,03,31,22,14,0.70
2008,03,31,22,15,0.70
2008,03,31,22,16,0.70
2008,03,31,22,17,0.70
2008,03,31,22,18,0.70
2008,03,31,22,19,0.70
2008,03,31,22,20,0.70
2008,03,31,22,21,0.70
2008,03,31,22,22,0.70
2008,03,31,22,23,0.70
2008,03,31,22,24,0.70
2008,03,31,22,25,0.70
2008,03,31,22,26,0.70
2008,03,31,22,27,0.70
2008,03,31,22,28,0.70
2008,03,31,22,29,0.70
2008,03,31,22,30,0.60
2008,03,31,22,31,0.60
2008,03,31,22,32,0.60
2008,03,31,22,33,0.60
2008,03,31,22,34,0.70
2008,03,31,22,35,0.80
2008,03,31,22,36,0.80
2008,03,31,22,37,1.00
2008,03,31,22,38,1.00
2008,03,31,22,39,1.10
2008,03,31,22,40,1.20
2008,03,31,22,41,1.20
2008,03,31,22,42,1.30
2008,03,31,22,43,1.30
2008,03,31,22,44,1.30
2008,03,31,22,45,1.30
2008,03,31,22,46,1.30
2008,03,31,22,47,1.40
2008,03,31,22,48,1.40
2008,03,31,22,49,1.40
2008,03,31,22,50,1.40
2008,03,31,22,51,1.60
2008,03,31,22,52,1.60
2008,03,31,22,53,1.60
2008,03,31,22,54,1.60
2008,03,31,22,55,1.60
2008,03,31,22,56,1.50
2008,03,31,22,57,1.40
2008,03,31,22,58,1.30
2008,03,31,22,59,1.30
2008,03,31,23,00,1.20
2008,03,31,23,01,1.20
2008,03,31,23,02,1.10
2008,03,31,23,03,1.10
2008,03,31,23,04,1.00
2008,03,31,23,05,1.00
2008,03,31,23,06,0.90
2008,03,31,23,07,0.90
2008,03,31,23,08,0.90
2008,03,31,23,09,0.90
2008,03,31,23,10,0.90
2008,03,31,23,11,0.90
2008,03,31,23,12,0.90
2008,03,31,23,13,0.90
2008,03,31,23,14,0.90
2008,03,31,23,15,0.90
2008,03,31,23,16,0.90
2008,03,31,23,17,0.90
2008,03,31,23,18,1.00
2008,03,31,23,19,1.00
2008,03,31,23,20,1.10
2008,03,31,23,21,1.10
2008,03,31,23,22,1.00
2008,03,31,23,23,1.00
2008,03,31,23,24,0.90
2008,03,31,23,25,0.80
2008,03,31,23,26,0.80
2008,03,31,23,27,0.70
2008,03,31,23,28,0.70
2008,03,31,23,29,0.60
2008,03,31,23,30,0.50
2008,03,31,23,31,0.50
2008,03,31,23,32,0.40
2008,03,31,23,33,0.30
2008,03,31,23,34,0.30
2008,03,31,23,35,0.20
2008,03,31,23,36,0.10
2008,03,31,23,37,0.10
2008,03,31,23,38,0.10
2008,03,31,23,39,0.10
2008,03,31,23,40,0.10
2008,03,31,23,41,0.10
2008,03,31,23,42,0.00
2008,03,31,23,43,0.00
2008,03,31,23,44,0.00
2008,03,31,23,45,0.00
2008,03,31,23,46,0.10
2008,03,31,23,47,0.10
2008,03,31,23,48,0.20
2008,03,31,23,49,0.20
2008,03,31,23,50,0.20
2008,03,31,23,51,0.20
2008,03,31,23,52,0.20
2008,03,31,23,53,0.20
2008,03,31,23,54,0.20
2008,03,31,23,55,0.20
2008,03,31,23,56,0.20
2008,03,31,23,57,0.20
2008,03,31,23,58,0.20
2008,03,31,23,59,0.20
